World > North America > United States > North Dakota

Burlington, North Dakota Regional Weather

Lat: 48.28N, Lon: 101.43W
Wx Zone: NDZ011
Feedback

Burlington, ND Regional Weather

Expires:201910171600;;848229
ASUS43 KBIS 171510
RWRND 

NORTH DAKOTA REGIONAL WEATHER ROUNDUP
NATIONAL WEATHER SERVICE BISMARCK ND
1000 AM CDT THU OCT 17 2019

NOTE: "FAIR" INDICATES FEW OR NO CLOUDS BELOW 12,000 FEET WITH NO
SIGNIFICANT WEATHER AND/OR OBSTRUCTIONS TO VISIBILITY.



NDZ001>003-009>011-017-171600-
NORTHWEST NORTH DAKOTA
  
CITY           SKY/WX    TMP DP  RH WIND       PRES   REMARKS
WILLISTON      SUNNY     46  36  66 SE10      29.63S                  
MINOT          SUNNY     42  37  82 SE8       29.69F                  
MINOT AFB      SUNNY     38  36  91 SE6       29.68F                  
$$
 

SKY/WX - Weather  TMP - Temperature  DP - Dew Point  RH - Relative Humidity
WIND - Wind Direction/Speed PRES - Barometric Pressure VSB - Visibility
WCI - Wind Chill Index E13G22 Wind - East Wind 13 mph/Gusts of 22 mph